APJ225 RJCC-RKSI

Flight info

Callsign APJ225
Flight time N/A
Altitude 36000
Route DALBI Y120 TAPPI Y12 ARIKA Y14 SAMON/N0460F380 Y14 SUGNO Y16 SAPRA Y685 GUKDO GUKDO2E
Aircraft A21N/M-SDE2E3FGHIRWXY/LB1

Departure

Time 2026-05-04 03:29
Airport New Chitose Airport (RJCC)

Arrival

Time N/A
Airport Incheon International Airport (RKSI)
Time Latitude Longitude Altitude Speed Heading
2026-05-04 03:11 42.78734 141.68283 84 ft 0 kts 274°
2026-05-04 03:23 42.78734 141.68299 89 ft 4 kts 276°
2026-05-04 03:23 42.78730 141.68335 88 ft 4 kts 282°
2026-05-04 03:23 42.78723 141.68370 88 ft 4 kts 293°
2026-05-04 03:24 42.78709 141.68400 88 ft 4 kts 323°
2026-05-04 03:24 42.78693 141.68408 89 ft 1 kts
2026-05-04 03:24 42.78690 141.68408 88 ft 0 kts
2026-05-04 03:26 42.78701 141.68409 87 ft 3 kts
2026-05-04 03:26 42.78731 141.68411 89 ft 5 kts
2026-05-04 03:27 42.78775 141.68416 86 ft 7 kts 14°
2026-05-04 03:27 42.78807 141.68480 85 ft 9 kts 59°
2026-05-04 03:27 42.78820 141.68573 85 ft 11 kts 81°
2026-05-04 03:27 42.78820 141.68685 84 ft 13 kts 92°
2026-05-04 03:28 42.78813 141.68811 84 ft 14 kts 114°
2026-05-04 03:28 42.78733 141.68843 89 ft 13 kts 174°
2026-05-04 03:28 42.78558 141.68867 87 ft 60 kts 174°
2026-05-04 03:28 42.77851 141.68968 87 ft 142 kts 172°
2026-05-04 03:29 42.76728 141.69237 408 ft 179 kts 170°
2026-05-04 03:29 42.75431 141.69514 1102 ft 196 kts 174°
2026-05-04 03:29 42.74035 141.69737 2027 ft 212 kts 175°
2026-05-04 03:29 42.72491 141.70020 2656 ft 233 kts 176°
2026-05-04 03:30 42.70854 141.70338 3469 ft 241 kts 176°
2026-05-04 03:30 42.69183 141.70669 4331 ft 245 kts 178°
2026-05-04 03:30 42.67483 141.71006 5153 ft 249 kts 178°
2026-05-04 03:30 42.65750 141.71350 5985 ft 254 kts 179°
2026-05-04 03:31 42.63988 141.71699 6797 ft 258 kts 179°
2026-05-04 03:31 42.62202 141.72050 7666 ft 261 kts 179°
2026-05-04 03:31 42.60393 141.72380 8551 ft 262 kts 182°
2026-05-04 03:31 42.58623 141.72156 9311 ft 253 kts 202°
2026-05-04 03:32 42.57089 141.71058 9720 ft 249 kts 222°
2026-05-04 03:32 42.55985 141.69252 10160 ft 256 kts 239°
2026-05-04 03:32 42.55124 141.67021 10464 ft 278 kts 243°
2026-05-04 03:32 42.54237 141.64571 10725 ft 300 kts 243°
2026-05-04 03:33 42.53265 141.61953 10967 ft 321 kts 242°
2026-05-04 03:33 42.52214 141.59187 11199 ft 340 kts 242°
2026-05-04 03:33 42.51088 141.56287 11433 ft 355 kts 241°
2026-05-04 03:33 42.50009 141.53560 11872 ft 361 kts 241°
2026-05-04 03:34 42.48811 141.50550 12435 ft 364 kts 241°
2026-05-04 03:34 42.47601 141.47524 13085 ft 367 kts 241°
2026-05-04 03:34 42.46376 141.44475 13653 ft 369 kts 240°
2026-05-04 03:34 42.45144 141.41417 14234 ft 371 kts 240°
2026-05-04 03:35 42.43904 141.38343 14891 ft 373 kts 240°
2026-05-04 03:35 42.42657 141.35256 15515 ft 374 kts 239°
2026-05-04 03:35 42.41406 141.32167 16019 ft 375 kts 239°
2026-05-04 03:35 42.40151 141.29073 16456 ft 376 kts 239°
2026-05-04 03:36 42.38887 141.25963 16875 ft 378 kts 239°
2026-05-04 03:36 42.37596 141.22802 17329 ft 380 kts 238°
2026-05-04 03:36 42.36334 141.19713 17775 ft 381 kts 238°
2026-05-04 03:36 42.35037 141.16527 18187 ft 382 kts 238°
2026-05-04 03:37 42.33773 141.13425 18661 ft 382 kts 238°
2026-05-04 03:37 42.32492 141.10282 19266 ft 382 kts 238°
2026-05-04 03:37 42.31211 141.07145 19922 ft 381 kts 238°
2026-05-04 03:37 42.29930 141.04013 20721 ft 380 kts 238°
2026-05-04 03:38 42.28651 141.00897 21567 ft 379 kts 237°
2026-05-04 03:38 42.27353 140.97756 22230 ft 377 kts 237°
2026-05-04 03:38 42.26081 140.94670 22793 ft 376 kts 237°
2026-05-04 03:38 42.24809 140.91580 23303 ft 376 kts 237°
2026-05-04 03:39 42.23560 140.88548 23848 ft 373 kts 237°
2026-05-04 03:39 42.22306 140.85507 24346 ft 369 kts 237°
2026-05-04 03:39 42.21061 140.82494 24839 ft 366 kts 237°
2026-05-04 03:39 42.19830 140.79505 25336 ft 363 kts 237°
2026-05-04 03:40 42.18637 140.76607 25832 ft 360 kts 237°
2026-05-04 03:40 42.17408 140.73633 26332 ft 357 kts 236°
2026-05-04 03:40 42.16221 140.70765 26858 ft 354 kts 236°
2026-05-04 03:40 42.15029 140.67885 27364 ft 350 kts 236°
2026-05-04 03:41 42.13846 140.65033 27873 ft 347 kts 236°
2026-05-04 03:41 42.12671 140.62211 28383 ft 343 kts 236°
2026-05-04 03:41 42.11510 140.59426 28904 ft 339 kts 236°
2026-05-04 03:41 42.10252 140.56769 29421 ft 333 kts 231°
2026-05-04 03:42 42.08717 140.54351 29842 ft 329 kts 225°
2026-05-04 03:42 42.06999 140.52339 30223 ft 327 kts 219°
2026-05-04 03:42 42.05081 140.50684 30566 ft 329 kts 213°
2026-05-04 03:42 42.02981 140.49411 30898 ft 334 kts 207°
2026-05-04 03:43 42.00743 140.48497 31259 ft 337 kts 204°
2026-05-04 03:43 41.98470 140.47711 31588 ft 337 kts 204°
2026-05-04 03:43 41.96204 140.46927 31923 ft 336 kts 204°
2026-05-04 03:43 41.93945 140.46123 32245 ft 335 kts 205°
2026-05-04 03:44 41.91701 140.45309 32566 ft 334 kts 205°
2026-05-04 03:44 41.89466 140.44490 32872 ft 332 kts 206°
2026-05-04 03:44 41.87245 140.43668 33176 ft 331 kts 206°
2026-05-04 03:44 41.85027 140.42843 33459 ft 330 kts 206°
2026-05-04 03:45 41.82815 140.42023 33674 ft 330 kts 206°
2026-05-04 03:45 41.80601 140.41201 33849 ft 330 kts 206°
2026-05-04 03:45 41.78382 140.40377 34000 ft 331 kts 206°
2026-05-04 03:45 41.76157 140.39550 34158 ft 333 kts 206°
2026-05-04 03:46 41.73924 140.38720 34331 ft 333 kts 206°
2026-05-04 03:46 41.71689 140.37891 34495 ft 334 kts 205°
2026-05-04 03:46 41.69445 140.37059 34668 ft 335 kts 205°
2026-05-04 03:46 41.67196 140.36227 34824 ft 335 kts 205°
2026-05-04 03:47 41.64945 140.35395 34979 ft 336 kts 205°
2026-05-04 03:47 41.62690 140.34561 35113 ft 337 kts 205°
2026-05-04 03:47 41.60428 140.33724 35248 ft 337 kts 205°
2026-05-04 03:47 41.58164 140.32885 35380 ft 338 kts 205°
2026-05-04 03:48 41.55890 140.32040 35412 ft 341 kts 205°
2026-05-04 03:48 41.51303 140.30346 35392 ft 342 kts 205°
2026-05-04 03:49 41.46720 140.28664 35383 ft 341 kts 205°
2026-05-04 03:49 41.42123 140.26969 35395 ft 341 kts 205°
2026-05-04 03:50 41.37593 140.25301 35397 ft 340 kts 205°
2026-05-04 03:50 41.33024 140.23623 35398 ft 340 kts 205°
2026-05-04 03:51 41.28436 140.21935 35405 ft 340 kts 205°
2026-05-04 03:51 41.23874 140.20267 35407 ft 340 kts 205°
2026-05-04 03:52 41.19315 140.18605 35412 ft 340 kts 205°
2026-05-04 03:52 41.14786 140.16957 35419 ft 340 kts 205°
2026-05-04 03:53 41.10220 140.15330 35419 ft 340 kts 205°
2026-05-04 03:53 41.06380 140.14008 35418 ft 340 kts 205°
2026-05-04 03:54 41.01828 140.12441 35421 ft 340 kts 205°
2026-05-04 03:54 40.97212 140.10845 35422 ft 340 kts 205°
2026-05-04 03:55 40.92780 140.08932 35433 ft 335 kts 209°
2026-05-04 03:55 40.88414 140.06763 35431 ft 335 kts 209°
2026-05-04 03:56 40.84048 140.04610 35439 ft 335 kts 209°
2026-05-04 03:56 40.79684 140.02474 35450 ft 334 kts 209°
2026-05-04 03:57 40.75328 140.00349 35456 ft 333 kts 209°
2026-05-04 03:57 40.70980 139.98229 35460 ft 333 kts 209°
2026-05-04 03:58 40.64469 139.95062 35454 ft 332 kts 209°
2026-05-04 03:58 40.60130 139.92953 35463 ft 332 kts 209°
2026-05-04 03:59 40.57960 139.91899 35470 ft 332 kts 209°